Flag for Switzerland Weather past 2 weeks in Basel, Basel-Stadt, Switzerland

Now
71 °F

Overcast.


Feels Like: 73 °F
Forecast: 59 / 87 °F
Wind: 3 mph from South

Location: Bale-Mulhouse

Current Time: Aug 4, 2015 at 4:26:05 PM

Latest Report: Aug 4, 2015 at 3:00 PM


Visibility: 34 mi

Pressure: 30.05 "Hg

Humidity: 74%

Dew point: 63 °F

Location of BaselLocation

Historic Weather in Basel — Graph

°F

Basel temperature yesterday

Maximum temperature yesterday: 92 °F (at 6:00 PM)
Minimum temperature yesterday: 57 °F (at 5:00 AM)
Average temperature yesterday: 75 °F

Past Weeks' High & Low Weather Summary

 TemperatureHumidityPressure
High93 °F (Jul 21, 5:00 PM)98% (Jul 30, 4:00 AM)30.12 "Hg (Jul 30, 4:00 AM)
Low46 °F (Jul 31, 6:00 AM)28% (Aug 3, 4:00 PM)29.65 "Hg (Jul 24, 7:00 PM)
Average68 °F66%29.94 "Hg
* Reported Jul 20 3:00 PM — Aug 4 3:00 PM, Basel, Weather by CustomWeather, © 2015

Note: Actual official high and low records may vary slightly from our data, if they occured in-between our weather recording intervals... More about our weather records

Advertising

Basel weather history for previous 24 hours

 ConditionsComfort  
Time TempWeatherWind HumidityBarometerVisibility
3:00 PM
Tue, Aug 4
71 °FOvercast.3 mph74%30.05 "Hg34 mi
2:00 PM69 °FLight rain. Overcast.3 mph83%30.05 "Hg9 mi
1:00 PM68 °FLight rain. Overcast.5 mph83%30.07 "Hg5 mi
12:00 PM69 °FLight rain. Overcast.6 mph81%30.06 "Hg7 mi
11:00 AM71 °FOvercast.15 mph70%30.04 "Hg12 mi
10:00 AM75 °FOvercast.15 mph56%30.00 "Hg19 mi
9:00 AM74 °FOvercast.8 mph60%29.96 "Hg19 mi
8:00 AM68 °FOvercast.7 mph71%29.92 "Hg19 mi
7:00 AM67 °FOvercast.5 mph74%29.92 "Hg16 mi
6:00 AM65 °FOvercast.6 mph78%29.91 "Hg16 mi
5:00 AM66 °FMild.6 mph75%29.91 "Hg34 mi
4:00 AM66 °FMild.6 mph76%29.92 "Hg34 mi
3:00 AM66 °FMild.5 mph77%29.93 "Hg28 mi
2:00 AM68 °FMild.6 mph74%29.94 "Hg31 mi
1:00 AM67 °FMild.5 mph80%29.96 "Hg28 mi
12:00 AM67 °FPassing clouds.3 mph84%29.95 "Hg16 mi
10:00 PM
Mon, Aug 3
71 °FPassing clouds.2 mph78%29.93 "Hg31 mi
9:00 PM80 °FPassing clouds.1 mph53%29.92 "Hg31 mi
8:00 PM88 °FPassing clouds.2 mph34%29.91 "Hg31 mi
7:00 PM91 °FPassing clouds.3 mph29%29.91 "Hg31 mi
6:00 PM92 °FPassing clouds.3 mph30%29.92 "Hg31 mi
5:00 PM92 °FPassing clouds.5 mph29%29.93 "Hg31 mi
4:00 PM91 °FPassing clouds.5 mph28%29.95 "Hg31 mi
Weather by CustomWeather, © 2015

See weather overviewHow to use our weather pages